THOR ABLESTAR DEB, 131

Orbit data source: Space-Track

THOR ABLESTAR DEB, 131 is space debris in LEO originally from a launch on Thu, 29 Jun 1961 UTC launched from the Air Force Eastern Test Range (AFETR). Debris objects in space refer to the collection of defunct objects orbiting the Earth. Examples of debris include non-operational satellites, rocket bodies, and fragments generated from explosions, collisions, or faulty payload assembly.

Loading next visibility...
THOR ABLESTAR DEB details
Identifier
131, 1961-015R
Orbit
LEO
Last TLE update18 hours ago
Origin
Flag of USUSAF SSD (US)
ManufacturerUnknown
MissionSpacecraft
Bus & MotorUnknown
MassUnknown
Launch date (UTC)
1961-06-29 (64 years ago)
Launch vehicleUnknown
Launch site
Air Force Eastern Test Range (AFETR)
Object type
Payload
Rocket body
Debris
Shape & HBRUnknown
Radar Cross SectionMedium (>0.1 m² and <1 m²)

Expand to show TLE details & history

TLE from 18 hours ago
0 THOR ABLESTAR DEB
1 00131U 61015R   25015.21781498  .00000292  00000-0  23973-3 0  9991
2 00131  66.7363 314.8225 0074191  68.7632 292.1355 14.01495689230871
Epoch: 2025-01-15T05:13Z
Definitive object data (Epoch: 2025-01-15T05:13:39.214Z)
Latitude-0.00004°
Longitude121.49577°
Altitude870.73 km
Speed7.428 km/s
True Right ascension20h 59m 17s
True Declination0° 00' 00"
Sunlit
Object was in daylight at TLE epoch
Visualization TLE readout
Latitude38.81954°
Longitude-80.47459°
Altitude873.401 km
Speed7.43 km/s
Apparent Right ascension09h 26m 42s
Apparent Declination2° 52' 33"
Sunlit
Object is in full shadow
Visualization observer readout
Local Sidereal Time23:42:01
Azimuth44.245° NE
Elevation-37.168°
Doppler factor1
Orbital elements
Apogee altitude940.914 km
Perigee altitude833.112 km
Semi-major axis7,265.15 km
Eccentricity0.0074191
Inclination66.7363°
RAAN314.8225°
Arg. of periapsis68.7632°
True anomaly291.34526°
Mean anomaly292.1355°
Eccentric anomaly291.74065°
Mean motion3.50491 °/min
BSTAR0.00023973
Orbital period102.71 mins
Loading maneuver chart data...

THOR ABLESTAR DEB Visibility forecast

Observer location: undefined°, undefined

Span
Click to sort rows by Start time (UTC) header in descending order
Start Az.
Max El. time (UTC)
Max El. Az.
Max El.
End time (UTC)
End Az.
10 mins2025-01-16 05:43:55.061Z346.277° N2025-01-16 05:48:55.061Z50.337° ENE31.133°2025-01-16 05:53:55.061Z117.888° SE
8 mins2025-01-16 07:30:55.061Z303.79° NW2025-01-16 07:34:55.061Z241.945° WSW28.903°2025-01-16 07:38:55.061Z191.56° SSW
9 mins2025-01-16 20:44:55.061Z181.236° SSW2025-01-16 20:48:55.061Z112.147° ESE37.274°2025-01-16 20:53:55.061Z40.758° NE
7 mins2025-01-16 22:31:55.061Z270.282° WNW2025-01-16 22:34:55.061Z314.87° NW23.695°2025-01-16 22:38:55.061Z4.696° NNE
|